header image
aktuelles Wetter

 Wetter METAR LOWG 182120Z 32003KT 9999 FEW040 BKN300 21/16 Q1016 NOSIG=

Willkommen arrow GSV Category 1 arrow Natur puuuur genießen
Natur puuuur genießen

 fl_dg.jpg - 16.97 Kb 

Fliegen, Relaxen, Wohlfühlen. Mit dem Segelflieger abheben und Natur pur genießen. Lautlos über das Land gleiten. Mit unseren modernen Segelflugzeugen ist dieses Erlebnis garantiert. 

 

<Previous   Next>
GSV-NEWSFLASH
Anfliegen2018

Unser Anfliegen am Sonntag dem 8.4.2018 fand bei herrlichem Frühlingswetter in LOKW statt.

Read more...
Privatpilotenausbildung in Graz
geänderte Sprechfunkverfahren
Die ACG hat einige Anpassungen an der Phrasologie durchgeführt ...
Read more...
Bilder
FX102989.JPG
Wer ist Online
No Users Online